星链-30609 (STARLINK-30609 )

导读

STARLINK-30609是美国SpaceX公司星链(Starlink)星座的v2.0 mini卫星,于2023年10月18日发射入轨。该卫星运行在近地轨道,近地点约475公里,远地点约476公里,轨道倾角53.16度,周期约94分钟。作为星链互联网星座的组成部分,它为全球尤其是偏远地区提供高速宽带服务,目前仍在轨正常工作。

Basic Information
目录编号:
58085
目录名称:
STARLINK-30609
国际标识:
2023-160L
轨道中心:
EARTH
卫星名称:
星链-30609
卫星全名:
星链-30609 (STARLINK-30609 )
卫星状态:
在轨 (已飞行974 天)
发射日期:
2023-10-18 UTC
国别 :
美国 (US)
星等 :
--
Orbit Information
数据来源 国际轨道数据 AOE轨道数据
星历时间 2026-06-16T19:29:50+0800
2天前
查看轨道信息
2026-06-17T07:00:00+0800
1天前
查看轨道信息
半长轴 6861.189km 6861.19km
偏心率 0.0002303 0.0002162
轨道倾角 43.004° 43.002°
近地点辐角 266.561° 267.671°
升交点赤经 243.448° 240.744°
平近点角 93.497° 211.163°
近地点 481.471km 481.569km
远地点 484.633km 484.537km
周期 94.267分钟 94.267分钟
每日圈数 15.275791 15.275789
Detailed Information
固有亮度:
5
最大亮度:
0.3
卫星平台:
Starlink v2.0 mini
覆盖范围:
全球
运营商:
太空探索技术公司
运营商所在国:
美国
制造商(研发单位):
太空探索技术公司
制造商所在国:
美国
使用方式:
暂无
Satellite Introduction
星链(Starlink)计划是由太空探索技术公司(SpaceX)提出的一个巨型低轨卫星互联网星座项目,计划在2019年至2024年间在太空搭建由约1.2万颗卫星组成的“星链”网络,其中1584颗将部署在地球上空550千米处的近地轨道,并从2020年开始工作。该卫星仍在工作。
2D Orbit Map
3D Orbit Map
Orbit Altitude Analysis Chart
Orbit Inclination Analysis Chart
Orbit Comprehensive Analysis Chart
View Comprehensive Chart